Location: Newark
(50.0306°N, 2.3272°E)
Time: 08:07:02
(UTC+00:00)

Vanguard 1 Rocket - Pass Details

Date: 15 December 2019
Orbit: 650 x 4226 km, 34.3° (Epoch: 21 January)

Event Time Altitude Azimuth Distance (km) Brightness Sun altitude
Rises 17:35:28 0° 208° (SSW) 8,461 13.0 -16.0°
Reaches altitude 10° 17:43:05 10° 198° (SSW) 7,305 12.4 -17.2°
Maximum altitude 18:00:33 27° 152° (SSE) 5,031 11.0 -19.9°
Enters shadow 18:09:57 17° 113° (ESE) 4,897 10.6 -21.4°
Drops below altitude 10° 18:12:49 10° 103° (ESE) 5,127 - -21.9°
Sets 18:16:50 0° 91° (E) 5,652 - -22.5°
